Flag for U.S.A. Weather past 2 weeks in Lynchburg, Virginia, U.S.A.

Now
74 °F

Clear.


Feels Like: 70 °F
Forecast: 70 / 87 °F
Wind: No wind

Location: Lynchburg Regional Airport

Current Time: Jul 29, 2015 at 10:47:17 PM

Latest Report: Jul 29, 2015 at 9:54 PM


Visibility: 10 mi

Pressure: 29.99 "Hg

Humidity: 97%

Dew point: 73 °F

Location of LynchburgLocation

Historic Weather in Lynchburg — Graph

°F

Lynchburg temperature yesterday

Maximum temperature yesterday: 87 °F (at 2:54 PM)
Minimum temperature yesterday: 71 °F (at 1:54 AM)
Average temperature yesterday: 76 °F

Past Weeks' High & Low Weather Summary

 TemperatureHumidityPressure
High90 °F (Jul 19, 4:54 PM)100% (Jul 15, 9:54 PM)30.13 "Hg (Jul 15, 9:54 PM)
Low63 °F (Jul 16, 11:54 PM)29% (Jul 22, 1:54 PM)29.60 "Hg (Jul 14, 9:54 PM)
Average76 °F78%29.94 "Hg
* Reported Jul 14 9:01 PM — Jul 29 9:54 PM, Lynchburg, Weather by CustomWeather, © 2015

Note: Actual official high and low records may vary slightly from our data, if they occured in-between our weather recording intervals... More about our weather records

Advertising

Lynchburg weather history for previous 24 hours

 ConditionsComfort  
Time TempWeatherWind HumidityBarometerVisibility
9:54 PM
Wed, Jul 29
74 °FClear.No wind97%29.99 "Hg10 mi
8:54 PM76 °FPassing clouds.No wind94%29.98 "Hg10 mi
7:54 PM79 °FSunny.5 mph88%29.97 "Hg10 mi
6:54 PM83 °FPartly sunny.7 mph74%29.94 "Hg10 mi
5:54 PM86 °FSunny.3 mph63%29.95 "Hg10 mi
4:54 PM86 °FSunny.6 mph63%29.96 "Hg10 mi
3:54 PM85 °FPassing clouds.10 mph68%29.98 "Hg10 mi
2:54 PM84 °FPassing clouds.6 mph70%30.00 "Hg10 mi
1:54 PM82 °FScattered clouds.8 mph74%30.01 "Hg10 mi
12:54 PM79 °FMostly cloudy.8 mph82%30.03 "Hg10 mi
12:01 PM79 °FOvercast.7 mph82%30.06 "Hg10 mi
10:57 AM76 °FMore clouds than sun.6 mph91%30.07 "Hg7 mi
9:54 AM74 °FFog.5 mph94%30.03 "Hg2 mi
9:01 AM73 °FFog.3 mph97%30.07 "Hg5 mi
8:01 AM72 °FFog.3 mph100%30.05 "Hg4 mi
6:54 AM72 °FFog.3 mph100%29.99 "Hg1 mi
5:54 AM72 °FFog.No wind100%29.99 "Hg6 mi
4:54 AM72 °FFog.No wind100%30.00 "Hg6 mi
4:04 AM72 °FFog.No wind100%30.02 "Hg1 mi
3:54 AM71 °FFog.No wind100%29.99 "Hg1 mi
3:02 AM72 °FFog.No wind100%30.02 "Hg2 mi
2:54 AM71 °FFog.No wind100%29.99 "Hg1 mi
1:54 AM73 °FFog.No wind97%30.00 "Hg6 mi
12:54 AM73 °FLow clouds.No wind97%30.00 "Hg7 mi
11:54 PM
Tue, Jul 28
73 °FLow clouds.3 mph100%30.01 "Hg7 mi
10:54 PM73 °FLight rain. Passing clouds.No wind100%30.01 "Hg7 mi
Weather by CustomWeather, © 2015

See weather overviewHow to use our weather pages